Estación de Catemu
Ultimos registro cada 15 minutos 27
| N° | Estación | Fecha / Hora | Temperatura | Humedad | Lluvia | Velocidad | Dirección | Radiación | Presion |
| 27 | Catemu | 06-05-2026 06:30 | 6,8 | 96,9 | 0 | 0 | 264 | 0,6 | 963,9 |
| 26 | Catemu | 06-05-2026 06:15 | 6,8 | 96,9 | 0 | 0 | 258 | 0,6 | 963,7 |
| 25 | Catemu | 06-05-2026 06:00 | 7,7 | 97 | 0 | 0 | 256 | 0,6 | 963,4 |
| 24 | Catemu | 06-05-2026 05:45 | 6,6 | 97,2 | 0 | 0 | 302 | 0,6 | 963,6 |
| 23 | Catemu | 06-05-2026 05:30 | 5,8 | 97 | 0 | 0 | 323 | 0,6 | 963,4 |
| 22 | Catemu | 06-05-2026 05:15 | 6,4 | 97 | 0 | 0 | 323 | 0,6 | 963,2 |
| 21 | Catemu | 06-05-2026 05:00 | 7,2 | 97,1 | 0 | 0 | 250 | 0,6 | 963,3 |
| 20 | Catemu | 06-05-2026 04:45 | 6,7 | 96,9 | 0 | 0 | 248 | 0,6 | 963 |
| 19 | Catemu | 06-05-2026 04:30 | 6,9 | 96,8 | 0 | 0 | 248 | 0,6 | 963,1 |
| 18 | Catemu | 06-05-2026 04:15 | 7,6 | 96,9 | 0 | 0 | 248 | 0,6 | 962,8 |
| 17 | Catemu | 06-05-2026 04:00 | 7,8 | 96,9 | 0 | 0 | 271 | 0,6 | 962,6 |
| 16 | Catemu | 06-05-2026 03:45 | 7,8 | 96,9 | 0 | 0 | 326 | 0,6 | 962,6 |
| 15 | Catemu | 06-05-2026 03:30 | 7 | 96,8 | 0 | 0 | 326 | 0,6 | 962,6 |
| 14 | Catemu | 06-05-2026 03:15 | 7,1 | 96,7 | 0 | 0 | 326 | 0,6 | 962,3 |
| 13 | Catemu | 06-05-2026 03:00 | 7,5 | 96,6 | 0 | 0 | 330 | 0,6 | 962,7 |
| 12 | Catemu | 06-05-2026 02:45 | 7,5 | 96,3 | 0 | 0 | 331 | 0,6 | 962,6 |
| 11 | Catemu | 06-05-2026 02:30 | 7,8 | 96,3 | 0 | 0 | 331 | 0,6 | 962,9 |
| 10 | Catemu | 06-05-2026 02:15 | 8 | 96,1 | 0 | 0 | 331 | 0,6 | 962,9 |
| 9 | Catemu | 06-05-2026 02:00 | 8,3 | 96,1 | 0 | 0 | 331 | 0,6 | 963,1 |
| 8 | Catemu | 06-05-2026 01:45 | 8,9 | 96 | 0 | 0 | 331 | 0,6 | 963 |
| 7 | Catemu | 06-05-2026 01:30 | 9,4 | 96,2 | 0 | 0 | 331 | 0,6 | 963,2 |
| 6 | Catemu | 06-05-2026 01:15 | 9,3 | 96,2 | 0 | 0 | 331 | 0,6 | 963,2 |
| 5 | Catemu | 06-05-2026 01:00 | 8,7 | 96,2 | 0 | 0 | 331 | 0,6 | 963,3 |
| 4 | Catemu | 06-05-2026 00:45 | 8,6 | 95,1 | 0 | 0 | 331 | 0,6 | 963,4 |
| 3 | Catemu | 06-05-2026 00:30 | 10,4 | 95,5 | 0 | 0 | 331 | 0,6 | 963,6 |
| 2 | Catemu | 06-05-2026 00:15 | 10,6 | 94,6 | 0 | 0 | 331 | 0,6 | 963,4 |
| 1 | Catemu | 06-05-2026 00:00 | 10,9 | 92,3 | 0 | 0 | 330 | 0,6 | 963,3 |